Weather History for San Carlos, CA

Change the Weather History Date:

Saturday, February 1, 2014

  Actual Average Record
Temperature  
Mean Temperature 48 °F -  
Max Temperature 57 °F 59 °F 74 °F (1976)
Min Temperature 39 °F 39 °F 27 °F (1950)
Degree Days  
Heating Degree Days 17    
Growing Degree Days 0 (Base 50)    
Moisture  
Dew Point 37 °F    
Average Humidity 71    
Maximum Humidity 87    
Minimum Humidity 41    
Precipitation  
Precipitation 0.00 in - - ()
Sea Level Pressure  
Sea Level Pressure 30.12 in    
Wind  
Wind Speed 4 mph (WNW)    
Max Wind Speed 10 mph    
Max Gust Speed -    
Visibility 10 miles    
Events      
Averages and records for this station are not official NWS values.
T = Trace of Precipitation, MM = Missing Value Source: NWS Daily Summary

Daily Weather History Graph

Daily Weather History Graph

Search for Another Location

Airport:

Trip Planner

Search our weather history database for the weather conditions in past years. The results will help you decide how hot, cold, wet, or windy it might be!

Date:

Astronomy

Feb. 01, 2014 Rise Set
Actual Time 7:12 AM PST 5:33 PM PST
Civil Twilight 6:44 AM PST 6:00 PM PST
Nautical Twilight 6:13 AM PST 6:32 PM PST
Astronomical Twilight 5:42 AM PST 7:02 PM PST
Moon 8:08 AM PST (2/1) 8:10 PM PST (2/1)
Length of Visible Light 11h 15m
Length of Day
10h 20m
Waxing Crescent, 5% of the Moon is Illuminated
Feb 1
Waxing Crescent
Feb 6
First Quarter
Feb 14
Full
Feb 22
Last Quarter
Mar 1
New

Hourly Weather History & Observations

Time (PST) Temp. Windchill Dew Point Humidity Pressure Visibility Wind Dir Wind Speed Gust Speed Precip Events Conditions
12:10 AM 48.2 °F - 39.2 °F 71% 30.10 in 10.0 mi West 4.6 mph - N/A   Clear
12:30 AM 48.2 °F - 39.2 °F 71% 30.10 in 10.0 mi WNW 8.1 mph - N/A   Clear
12:50 AM 48.2 °F - 39.2 °F 71% 30.10 in 10.0 mi NW 5.8 mph - N/A   Clear
1:10 AM 48.2 °F - 39.2 °F 71% 30.11 in 10.0 mi WNW 3.5 mph - N/A   Clear
1:30 AM 48.2 °F - 39.2 °F 71% 30.11 in 10.0 mi West 6.9 mph - N/A   Clear
1:50 AM 48.2 °F - 39.2 °F 71% 30.11 in 10.0 mi NW 4.6 mph - N/A   Clear
2:10 AM 46.4 °F 44.3 °F 39.2 °F 76% 30.11 in 10.0 mi West 4.6 mph - N/A   Clear
2:30 AM 46.4 °F 45.2 °F 39.2 °F 76% 30.11 in 10.0 mi NW 3.5 mph - N/A   Clear
2:50 AM 46.4 °F 45.2 °F 37.4 °F 71% 30.11 in 10.0 mi West 3.5 mph - N/A   Clear
3:10 AM 46.4 °F - 37.4 °F 71% 30.11 in 10.0 mi Calm Calm - N/A   Clear
3:30 AM 44.6 °F - 37.4 °F 76% 30.12 in 10.0 mi Calm Calm - N/A   Clear
3:50 AM 44.6 °F - 37.4 °F 76% 30.12 in 10.0 mi Calm Calm - N/A   Clear
4:10 AM 44.6 °F - 37.4 °F 76% 30.12 in 10.0 mi Calm Calm - N/A   Clear
4:30 AM 44.6 °F - 37.4 °F 76% 30.12 in 10.0 mi Calm Calm - N/A   Clear
4:50 AM 44.6 °F 43.1 °F 37.4 °F 76% 30.13 in 10.0 mi WNW 3.5 mph - N/A   Clear
5:10 AM 42.8 °F - 37.4 °F 81% 30.13 in 10.0 mi Calm Calm - N/A   Clear
5:30 AM 42.8 °F - 37.4 °F 81% 30.14 in 10.0 mi Calm Calm - N/A   Clear
5:50 AM 42.8 °F - 37.4 °F 81% 30.14 in 10.0 mi Calm Calm - N/A   Clear
6:10 AM 41.0 °F 39.0 °F 35.6 °F 81% 30.14 in 10.0 mi SSE 3.5 mph - N/A   Clear
6:30 AM 41.0 °F - 35.6 °F 81% 30.15 in 10.0 mi Calm Calm - N/A   Clear
6:47 AM 39.2 °F 37.0 °F 35.6 °F 87% 30.15 in 10.0 mi SSE 3.5 mph - N/A   Clear
6:50 AM 39.2 °F 37.0 °F 35.6 °F 87% 30.15 in 10.0 mi SSW 3.5 mph - N/A   Clear
7:47 AM 39.2 °F - 35.6 °F 87% 30.16 in 10.0 mi Calm Calm - N/A   Clear
8:47 AM 46.4 °F - 41.0 °F 81% 30.18 in 10.0 mi Calm Calm - N/A   Clear
9:55 AM 48.2 °F - 39.2 °F 71% 30.17 in 10.0 mi East 6.9 mph - N/A   Clear
10:55 AM 50.0 °F - 39.2 °F 66% 30.18 in 10.0 mi Calm Calm - N/A   Clear
11:50 AM 53.6 °F - 37.4 °F 54% 30.17 in 10.0 mi ENE 3.5 mph - N/A   Clear
12:49 PM 53.6 °F - 35.6 °F 51% 30.14 in 10.0 mi ENE 4.6 mph - N/A   Partly Cloudy
1:50 PM 53.6 °F - 37.4 °F 54% 30.12 in 10.0 mi NE 6.9 mph - N/A   Partly Cloudy
2:47 PM 55.4 °F - 32.0 °F 41% 30.11 in 10.0 mi NNE 5.8 mph - N/A   Partly Cloudy
3:49 PM 57.2 °F - 35.6 °F 44% 30.11 in 10.0 mi NNW 10.4 mph - N/A   Partly Cloudy
5:49 PM 51.8 °F - 39.2 °F 62% 30.12 in 10.0 mi WNW 9.2 mph - N/A   Partly Cloudy
6:47 PM 50.0 °F - 39.2 °F 66% 30.11 in 10.0 mi NNW 5.8 mph - N/A   Clear
7:47 PM 48.2 °F - 37.4 °F 66% 30.11 in 10.0 mi West 6.9 mph - N/A   Clear
8:47 PM 48.2 °F - 39.2 °F 71% 30.11 in 10.0 mi Calm Calm - N/A   Clear
9:10 PM 46.4 °F - 35.6 °F 66% 30.11 in 10.0 mi Calm Calm - N/A   Clear
9:30 PM 46.4 °F - 35.6 °F 66% 30.11 in 10.0 mi Calm Calm - N/A   Clear
9:50 PM 46.4 °F 45.2 °F 35.6 °F 66% 30.10 in 10.0 mi SSW 3.5 mph - N/A   Clear
10:10 PM 46.4 °F - 37.4 °F 71% 30.10 in 10.0 mi Calm Calm - N/A   Clear
10:30 PM 46.4 °F - 37.4 °F 71% 30.11 in 10.0 mi Calm Calm - N/A   Clear
10:50 PM 44.6 °F - 35.6 °F 71% 30.10 in 10.0 mi Calm Calm - N/A   Clear
11:10 PM 44.6 °F - 35.6 °F 71% 30.11 in 10.0 mi Calm Calm - N/A   Clear
11:30 PM 44.6 °F 43.1 °F 37.4 °F 76% 30.10 in 10.0 mi SSW 3.5 mph - N/A   Clear
11:50 PM 44.6 °F 42.2 °F 33.8 °F 66% 30.09 in 10.0 mi SSW 4.6 mph - N/A   Clear